Decatur, AL

6:59 PM CDT on April 29, 2017 (GMT -0500)
Pryor Regional

Weather History for KDCU - March, 2014

Change the Weather History Date:

Sunday, March 30, 2014

  Actual Average Record
Temperature  
Mean Temperature 52 °F -  
Max Temperature 64 °F 68 °F 84 °F (1963)
Min Temperature 39 °F 45 °F 22 °F (1964)
Degree Days  
Heating Degree Days 14    
Growing Degree Days 2 (Base 50)    
Moisture  
Dew Point 35 °F    
Average Humidity 62    
Maximum Humidity 86    
Minimum Humidity 26    
Precipitation  
Precipitation 0.00 in - - ()
Sea Level Pressure  
Sea Level Pressure 30.20 in    
Wind  
Wind Speed 8 mph (NW)    
Max Wind Speed 16 mph    
Max Gust Speed 17 mph    
Visibility 9 miles    
Events      
Averages and records for this station are not official NWS values.
T = Trace of Precipitation, MM = Missing Value Source: NWS Daily Summary

Daily Weather History Graph

Daily Weather History Graph

Search for Another Location

Airport or City:

Trip Planner

Search our weather history database for the weather conditions in past years. The results will help you decide how hot, cold, wet, or windy it might be!

Date:

Astronomy

Mar. 30, 2014 Rise Set
Actual Time 6:37 AM CDT 7:07 PM CDT
Civil Twilight 6:12 AM CDT 7:32 PM CDT
Nautical Twilight 5:42 AM CDT 8:02 PM CDT
Astronomical Twilight 5:12 AM CDT 8:32 PM CDT
Moon 6:22 AM CDT (3/30) 7:18 PM CDT (3/30)
Length of Visible Light 13h 20m
Length of Day
12h 29m
Waning Crescent, 0% of the Moon is Illuminated
Mar 30
Waning Crescent
Mar 30
New
Apr 7
First Quarter
Apr 15
Full
Apr 22
Last Quarter

Hourly Weather History & Observations

Time (CDT) Temp. Windchill Dew Point Humidity Pressure Visibility Wind Dir Wind Speed Gust Speed Precip Events Conditions
12:53 AM 44.1 °F 36.8 °F 36.0 °F 73% 30.20 in 9.0 mi North 16.1 mph - N/A   Overcast
1:53 AM 43.0 °F 38.2 °F 35.1 °F 74% 30.18 in 9.0 mi North 8.1 mph 17.3 mph N/A   Overcast
2:53 AM 43.0 °F 37.7 °F 35.1 °F 74% 30.19 in 10.0 mi NNW 9.2 mph - N/A   Overcast
3:53 AM 42.1 °F 36.6 °F 35.1 °F 76% 30.20 in 10.0 mi NNW 9.2 mph - N/A   Overcast
4:53 AM 41.0 °F 35.8 °F 34.0 °F 76% 30.21 in 10.0 mi NNW 8.1 mph - N/A   Overcast
5:53 AM 41.0 °F 36.4 °F 34.0 °F 76% 30.23 in 10.0 mi North 6.9 mph - N/A   Overcast
6:53 AM 41.0 °F 35.2 °F 33.1 °F 73% 30.25 in 8.0 mi NNW 9.2 mph - N/A   Overcast
7:31 AM 39.2 °F 34.2 °F 33.8 °F 81% 30.25 in 8.0 mi North 6.9 mph - N/A   Scattered Clouds
7:53 AM 42.1 °F 39.2 °F 34.0 °F 73% 30.26 in 8.0 mi NNW 4.6 mph - N/A   Clear
8:53 AM 44.1 °F 40.8 °F 35.1 °F 71% 30.26 in 8.0 mi NNW 5.8 mph - N/A   Partly Cloudy
9:53 AM 46.9 °F - 34.0 °F 61% 30.27 in 8.0 mi NW 8.1 mph - N/A   Clear
10:53 AM 50.0 °F - 35.1 °F 57% 30.27 in 9.0 mi WNW 8.1 mph - N/A   Clear
11:53 AM 52.0 °F - 37.9 °F 59% 30.25 in 9.0 mi Variable 6.9 mph - N/A   Clear
12:53 PM 54.0 °F - 37.0 °F 53% 30.23 in 9.0 mi West 4.6 mph - N/A   Clear
1:53 PM 57.9 °F - 37.9 °F 47% 30.20 in 9.0 mi West 9.2 mph - N/A   Clear
2:53 PM 61.0 °F - 36.0 °F 39% 30.19 in 8.0 mi West 9.2 mph - N/A   Clear
3:53 PM 64.0 °F - 34.0 °F 33% 30.15 in 10.0 mi Variable 4.6 mph - N/A   Clear
4:53 PM 64.9 °F - 28.9 °F 26% 30.15 in 10.0 mi Calm Calm - N/A   Clear
5:53 PM 63.0 °F - 32.0 °F 31% 30.14 in 10.0 mi West 9.2 mph - N/A   Clear
6:53 PM 60.1 °F - 33.1 °F 36% 30.14 in 10.0 mi West 4.6 mph - N/A   Clear
7:53 PM 48.9 °F - 39.0 °F 69% 30.15 in 10.0 mi Calm Calm - N/A   Clear
8:53 PM 48.0 °F - 36.0 °F 63% 30.17 in 10.0 mi Calm Calm - N/A   Clear
9:53 PM 45.0 °F - 35.1 °F 68% 30.17 in 10.0 mi Calm Calm - N/A   Clear
10:53 PM 42.1 °F - 36.0 °F 79% 30.17 in 10.0 mi Calm Calm - N/A   Clear
11:53 PM 39.9 °F - 36.0 °F 86% 30.17 in 10.0 mi Calm Calm - N/A   Clear